Weather History for Edwards AFB, CA

Change the Weather History Date:

Monday, November 5, 2012

  Actual Average Record
Temperature  
Mean Temperature 62 °F -  
Max Temperature 82 °F 66 °F 82 °F (2012)
Min Temperature 41 °F 37 °F 32 °F (2003)
Degree Days  
Heating Degree Days 4    
Growing Degree Days 12 (Base 50)    
Moisture  
Dew Point 20 °F    
Average Humidity 23    
Maximum Humidity 36    
Minimum Humidity 12    
Precipitation  
Precipitation 0.00 in - - ()
Sea Level Pressure  
Sea Level Pressure 30.15 in    
Wind  
Wind Speed 2 mph (West)    
Max Wind Speed 6 mph    
Max Gust Speed -    
Visibility 10 miles    
Events      
Averages and records for this station are not official NWS values.
T = Trace of Precipitation, MM = Missing Value Source: NWS Daily Summary

Daily Weather History Graph

Daily Weather History Graph

Search for Another Location

Airport:

Trip Planner

Search our weather history database for the weather conditions in past years. The results will help you decide how hot, cold, wet, or windy it might be!

Date:

Astronomy

Nov. 05, 2012 Rise Set
Actual Time 6:16 AM PST 4:53 PM PST
Civil Twilight 5:50 AM PST 5:19 PM PST
Nautical Twilight 5:20 AM PST 5:49 PM PST
Astronomical Twilight 4:50 AM PST 6:19 PM PST
Moon 10:34 PM PST (11/5) 11:38 AM PST (11/5)
Length of Visible Light 11h 29m
Length of Day
10h 36m
Waning Gibbous, 62% of the Moon is Illuminated
Nov 5
Waning Gibbous
Nov 6
Last Quarter
Nov 13
New
Nov 20
First Quarter
Nov 28
Full

Hourly Weather History & Observations

Time (PST) Temp. Windchill Dew Point Humidity Pressure Visibility Wind Dir Wind Speed Gust Speed Precip Events Conditions
12:55 AM 47.3 °F - 15.1 °F 28% 30.17 in 10.0 mi Calm Calm - N/A   Clear
1:55 AM 45.5 °F - 14.4 °F 29% 30.17 in 10.0 mi Calm Calm - N/A   Clear
2:55 AM 45.5 °F 43.2 °F 16.0 °F 31% 30.16 in 10.0 mi West 4.6 mph - N/A   Clear
3:55 AM 42.8 °F 41.1 °F 16.0 °F 34% 30.17 in 10.0 mi South 3.5 mph - N/A   Clear
4:55 AM 41.2 °F 38.2 °F 14.9 °F 34% 30.18 in 10.0 mi WSW 4.6 mph - N/A   Clear
5:55 AM 41.7 °F - 16.2 °F 36% 30.20 in 90.0 mi Calm Calm - N/A   Partly Cloudy
6:55 AM 42.3 °F - 15.8 °F 34% 30.22 in 90.0 mi Calm Calm - N/A   Partly Cloudy
7:55 AM 50.0 °F - 19.2 °F 30% 30.23 in 90.0 mi Calm Calm - N/A   Partly Cloudy
8:55 AM 53.2 °F - 17.6 °F 25% 30.23 in 90.0 mi NNE 3.5 mph - N/A   Partly Cloudy
9:55 AM 62.2 °F - 20.1 °F 20% 30.22 in 90.0 mi ENE 3.5 mph - N/A   Clear
10:55 AM 71.1 °F - 21.6 °F 15% 30.19 in 90.0 mi Calm Calm - N/A   Clear
11:55 AM 78.3 °F - 24.1 °F 13% 30.15 in 90.0 mi Variable 3.5 mph - N/A   Clear
12:55 PM 79.2 °F - 24.8 °F 13% 30.13 in 90.0 mi Calm Calm - N/A   Clear
1:55 PM 81.0 °F - 24.3 °F 12% 30.10 in 90.0 mi North 5.8 mph - N/A   Partly Cloudy
2:55 PM 82.6 °F - 25.5 °F 12% 30.09 in 90.0 mi SE 4.6 mph - N/A   Partly Cloudy
3:55 PM 82.6 °F - 25.5 °F 12% 30.08 in 90.0 mi Calm Calm - N/A   Partly Cloudy
4:55 PM 79.2 °F - 26.6 °F 14% 30.08 in 90.0 mi Calm Calm - N/A   Partly Cloudy
5:55 PM 68.4 °F - 23.7 °F 19% 30.10 in 50.0 mi Calm Calm - N/A   Clear
6:55 PM 63.9 °F - 23.5 °F 22% 30.12 in 30.0 mi Calm Calm - N/A   Clear
7:55 PM 59.9 °F - 20.8 °F 22% 30.12 in 30.0 mi Calm Calm - N/A   Clear
8:55 PM 60.4 °F - 22.8 °F 24% 30.12 in 30.0 mi Calm Calm - N/A   Clear
9:55 PM 55.8 °F - 20.1 °F 25% 30.12 in 30.0 mi WNW 3.5 mph - N/A   Clear
10:55 PM 52.2 °F - 19.9 °F 28% 30.12 in 10.0 mi WSW 4.6 mph - N/A   Clear
11:55 PM 48.9 °F - 18.1 °F 30% 30.12 in 10.0 mi SW 4.6 mph - N/A   Clear